Theta_e
307 307 307 307 307 307 308 306 306 307 306 305 305 305 305 306 306 302 298 299 297 293 293 295 295 293 293 293 290 292 292 294 296 292 291 292 291 294 292 294 295 293 292 291 293 290 288 307 304 298 306 311 311 312
307 307 306 307 306 307 306 306 306 306 306 306 305 305 304 304 305 303 297 299 301 295 292 298 298 299 297 297 294 293 292 294 298 294 294 294 291 293 290 288 298 292 298 294 297 296 306 309 308 309 310 309 312 314
306 307 306 306 306 305 304 304 305 306 306 306 305 305 304 304 305 303 298 299 297 293 292 292 291 297 301 300 301 291 295 296 298 299 296 293 287 292 288 289 293 297 300 297 298 300 303 305 306 307 311 311 313 316
306 306 305 306 305 304 303 304 305 305 305 305 305 304 303 304 305 302 299 299 298 294 286 289 298 295 300 300 299 299 297 300 299 300 295 292 288 294 289 291 292 296 298 295 296 299 299 301 305 308 308 308 307 312
306 305 305 303 303 303 304 304 305 305 304 304 304 303 303 303 303 303 301 300 300 293 286 288 294 296 298 299 297 297 296 295 293 291 292 290 294 292 293 292 289 295 293 291 290 298 299 302 306 307 304 305 307 311
304 304 303 303 303 303 304 304 304 303 303 303 303 303 302 302 302 299 292 298 300 301 291 283 293 293 296 296 295 296 296 294 293 291 291 294 298 295 289 288 295 298 299 301 298 303 304 306 306 305 305 307 310 311
303 302 302 303 304 304 304 303 303 303 303 303 303 302 302 303 299 294 292 298 300 302 291 284 287 294 295 294 294 294 296 294 294 291 291 292 294 296 291 287 293 297 299 300 305 304 300 301 303 307 308 310 313 317
302 303 303 303 303 303 303 303 303 303 302 302 302 302 302 302 300 297 300 301 301 296 292 285 286 290 298 291 290 294 291 293 293 291 294 292 294 294 288 293 296 298 298 299 301 302 300 304 304 307 313 312 313 315
302 303 303 303 303 303 303 303 302 302 302 302 301 301 298 296 293 294 300 303 300 294 286 286 283 285 298 291 293 293 294 288 294 290 291 293 291 289 293 296 297 299 299 300 304 306 306 302 305 311 314 314 314 316
302 302 302 302 302 303 303 303 302 302 302 301 296 292 288 293 298 302 297 292 291 292 291 284 290 286 294 292 288 290 294 292 288 292 296 290 290 297 299 300 301 301 302 301 300 299 300 301 304 312 315 316 318 316
301 301 302 302 302 302 302 302 302 301 297 294 290 289 294 298 296 292 286 285 287 285 289 288 287 286 294 288 288 291 288 292 286 291 291 290 290 296 300 303 305 307 306 302 301 303 305 306 309 313 314 313 313 313
300 301 301 301 302 302 302 302 300 296 295 294 295 298 297 292 287 284 282 285 283 282 288 287 289 289 291 294 291 291 287 288 284 294 290 288 295 300 303 303 306 308 306 304 307 309 313 312 314 313 312 311 310 309
300 300 301 301 301 301 301 301 298 298 298 297 293 289 286 285 280 278 278 281 281 287 290 290 289 291 292 293 292 290 285 286 294 288 289 293 299 300 301 305 307 308 310 311 310 312 313 312 312 312 310 309 309 308
301 300 300 301 301 301 301 300 300 297 295 288 284 280 281 280 282 284 285 287 290 292 293 293 292 290 292 290 292 286 290 290 287 286 288 297 298 299 304 307 307 306 308 309 310 311 311 312 312 312 312 311 308 306
301 300 300 300 300 301 301 301 299 298 292 286 284 279 282 287 289 290 291 291 294 296 294 292 291 291 290 288 291 290 286 285 287 288 295 298 301 301 303 305 304 305 306 308 308 311 310 311 311 311 311 310 309 309
301 300 298 301 301 301 301 299 298 296 291 287 285 284 288 287 288 290 291 291 296 295 295 292 287 284 285 289 287 286 286 285 291 295 299 300 301 303 301 304 302 304 306 307 307 309 310 311 312 311 311 311 311 310
297 296 300 301 301 300 299 296 293 287 287 285 285 289 288 288 288 291 293 294 298 292 287 288 284 285 291 287 286 291 289 293 297 298 300 302 303 303 302 304 303 302 305 308 308 307 308 311 313 310 308 309 310 310
295 299 301 301 300 298 296 294 290 288 284 287 285 289 290 292 291 292 295 297 294 291 290 287 287 287 287 285 289 294 298 298 300 301 303 304 304 304 304 303 303 303 307 307 309 307 308 309 311 309 309 309 307 307
299 300 301 300 298 295 290 290 291 284 286 289 291 292 292 292 295 296 295 295 295 295 293 291 288 287 289 291 293 296 298 301 299 301 301 302 303 303 302 302 302 305 309 309 308 308 308 310 312 310 311 312 307 306
301 301 300 299 298 293 289 290 293 288 286 290 292 291 292 293 295 294 293 294 291 290 289 287 289 290 291 292 293 295 297 300 299 297 299 302 301 301 303 304 305 307 309 309 307 301 309 310 310 312 312 311 309 306
298 299 299 299 296 294 290 290 289 290 290 289 292 291 291 294 292 294 293 292 290 289 288 290 290 291 293 294 294 295 294 295 295 298 299 300 299 302 304 306 308 309 308 308 305 304 304 308 308 310 310 311 311 309
297 299 296 296 289 289 288 290 289 290 289 290 291 292 290 288 288 289 295 292 290 288 290 291 290 291 292 292 293 294 294 296 298 297 295 296 298 299 303 305 308 304 303 303 304 304 304 306 307 306 305 304 305 306
297 294 290 288 285 285 286 290 287 289 286 289 293 290 289 290 291 294 289 291 290 292 292 292 293 293 291 293 293 293 295 295 295 296 297 298 299 301 305 307 308 308 305 303 305 305 304 296 299 304 304 303 301 300
298 291 288 288 287 286 291 288 290 288 289 290 289 286 287 289 292 290 287 289 291 292 292 292 293 292 292 293 292 294 295 295 295 297 297 298 299 301 304 307 308 308 308 306 305 305 305 303 299 304 304 302 302 301
286 285 287 285 290 288 287 287 287 287 285 287 286 286 288 291 287 285 285 289 291 292 294 293 293 292 290 291 292 294 297 295 296 296 298 297 299 303 305 307 308 308 310 308 307 305 304 305 305 304 303 302 300 298
284 288 287 287 288 287 286 283 283 284 284 284 285 288 289 287 284 283 287 290 290 291 292 290 290 291 291 292 292 294 296 297 296 296 298 298 298 300 300 301 304 306 310 310 308 306 305 305 304 303 302 300 292 299
286 287 289 293 290 289 287 288 289 287 284 283 285 286 286 282 282 286 291 292 290 293 294 294 293 292 292 293 296 297 297 297 296 297 299 299 300 301 302 301 302 306 310 309 308 308 305 304 303 302 302 303 302 300
290 290 286 289 288 289 286 286 286 284 285 288 287 284 283 283 284 288 288 291 292 293 293 294 295 295 295 295 296 296 297 296 297 297 299 300 300 302 303 305 307 288 308 309 308 308 307 306 305 304 301 298 299 300
289 291 291 287 288 288 287 286 286 289 290 289 286 286 285 287 288 287 289 292 294 295 293 293 294 295 296 297 297 297 296 295 293 292 294 295 296 299 303 305 309 309 308 304 288 298 306 305 303 302 301 300 299 298
289 293 289 288 286 285 288 291 289 291 292 292 291 288 287 286 290 294 295 298 297 297 297 298 298 296 296 296 297 296 297 297 297 295 295 295 297 302 303 306 308 307 307 306 304 302 291 301 298 301 299 298 297 298
293 292 289 289 287 290 291 293 294 293 292 292 293 290 289 291 293 296 296 297 297 299 298 297 298 299 298 297 296 295 295 297 298 299 300 301 301 303 304 307 307 306 306 307 307 307 306 305 303 301 299 296 296 297
292 290 289 286 289 294 295 293 293 290 291 291 290 291 291 290 288 291 296 296 295 294 292 298 298 298 300 300 299 299 290 302 300 301 300 301 302 305 307 308 307 307 307 307 307 307 306 304 301 300 299 298 298 297
292 292 291 290 290 290 293 293 292 291 290 290 290 291 290 289 285 290 297 298 295 295 295 298 302 302 301 301 300 298 295 300 295 288 288 289 291 296 306 308 308 308 307 307 307 307 305 303 303 302 302 302 301 299
Wind_Speed
19 18 18 18 18 15 21 23 22 19 18 17 16 14 10 11 15 5 2 4 1 2 3 4 4 4 3 2 3 3 3 3 3 6 5 4 6 3 3 3 3 8 9 7 10 10 15 9 8 20 10 18 18 24
17 20 19 18 18 20 22 23 20 19 17 16 16 14 11 7 13 6 2 3 2 2 3 2 5 8 8 4 2 1 3 1 1 3 1 1 3 2 2 4 3 6 5 4 9 5 3 12 11 9 15 17 20 19
19 21 20 17 22 24 23 20 19 17 16 15 15 14 10 7 15 6 3 4 2 1 5 5 10 13 12 13 10 5 2 2 2 1 1 1 5 2 4 6 7 4 3 6 8 8 17 18 21 21 20 16 20 20
21 21 19 22 26 25 22 20 19 16 17 16 15 14 11 10 13 7 4 3 2 1 3 3 1 5 5 12 16 15 6 4 3 1 2 3 3 5 3 5 7 5 7 8 20 18 23 22 14 14 19 24 25 26
22 28 27 26 25 23 21 19 18 18 17 16 15 13 11 10 10 4 2 3 3 1 3 5 9 9 12 10 16 16 13 11 5 3 4 5 3 5 7 8 13 11 13 12 14 14 18 17 19 23 28 27 28 26
28 27 26 25 23 21 21 20 18 17 16 15 14 13 11 10 12 3 2 3 4 1 2 4 4 4 3 7 14 11 10 7 6 5 4 4 4 4 6 8 8 13 19 18 20 21 22 21 24 27 29 28 29 25
24 24 23 23 23 21 20 20 19 17 16 15 15 13 10 14 4 1 0 2 9 4 2 4 4 2 3 5 4 5 8 4 5 3 4 5 4 6 8 18 18 16 19 21 21 20 22 24 20 23 28 28 24 21
22 22 22 21 20 21 20 20 20 19 18 17 15 12 10 11 5 2 3 8 7 2 1 3 3 3 4 3 4 4 5 5 6 4 3 4 4 5 10 17 19 20 22 24 26 23 24 19 24 27 25 20 21 20
22 21 21 20 21 23 21 20 21 19 18 18 16 14 4 2 2 2 3 12 1 1 1 2 3 1 2 3 1 4 5 5 4 6 6 6 7 11 17 16 18 18 14 16 17 17 22 24 25 28 21 22 21 19
20 20 20 20 22 21 21 21 20 19 20 17 4 2 2 2 2 7 3 4 3 2 3 4 3 3 2 2 1 2 5 5 5 8 5 7 12 21 22 22 21 24 23 19 18 20 27 24 24 27 23 20 18 13
21 20 21 22 22 21 20 19 19 21 9 2 2 2 1 1 2 1 3 4 4 4 4 4 8 7 2 5 3 4 3 3 4 4 6 4 5 7 6 14 15 20 17 14 17 23 24 26 20 8 7 9 13 15
20 20 20 21 21 21 20 21 20 4 3 4 4 4 2 1 2 4 4 3 4 4 4 4 4 6 3 3 4 4 3 2 4 3 4 4 2 12 14 16 14 8 4 9 15 15 9 5 4 7 11 12 13 17
20 19 18 20 20 20 21 19 9 16 9 2 2 3 2 3 5 6 7 5 4 4 4 5 4 3 3 4 4 3 4 5 5 4 5 2 10 13 14 10 10 10 11 9 8 8 8 6 5 8 12 14 17 18
18 18 18 17 18 18 19 16 16 7 3 2 4 6 5 5 5 5 5 3 3 3 3 3 2 4 2 4 4 4 3 3 4 4 2 3 9 12 11 9 7 13 13 12 10 8 5 7 10 10 13 14 15 17
16 16 17 16 16 16 18 16 8 2 1 2 3 5 7 4 3 2 2 2 3 1 2 2 2 1 3 4 3 3 2 4 5 2 1 3 7 8 11 11 9 10 11 12 12 4 12 9 12 10 10 11 12 12
16 14 3 16 16 16 19 10 3 1 1 1 4 4 4 3 4 4 5 6 3 2 2 1 2 2 5 4 4 6 3 4 0 1 3 3 5 7 5 9 10 10 9 7 11 12 10 11 10 12 10 10 11 13
8 2 14 17 15 18 14 3 2 2 2 4 5 6 7 6 5 3 4 4 5 5 3 2 5 7 1 5 4 4 3 1 2 1 1 2 5 4 7 7 8 9 7 2 6 4 9 8 6 8 12 10 11 12
3 8 18 20 15 10 2 1 2 4 7 7 5 4 5 6 5 4 3 4 4 5 4 4 1 4 4 3 2 0 1 1 2 3 1 4 6 7 6 10 10 7 5 4 2 3 1 3 4 6 10 10 10 11
10 13 21 20 6 3 4 4 3 4 6 4 5 5 5 5 5 5 2 5 5 2 3 4 5 3 1 1 2 1 1 1 1 2 2 3 4 7 7 9 5 4 6 6 3 2 5 6 5 5 6 8 8 7
15 16 15 10 1 1 3 3 3 4 4 2 3 4 3 3 2 3 5 4 6 4 4 4 1 1 1 2 2 2 3 4 1 1 2 3 5 7 7 6 5 5 5 6 5 4 2 4 6 5 6 8 9 10
6 6 8 2 2 1 2 2 4 3 2 3 2 2 3 2 3 1 4 5 2 1 2 1 3 1 1 2 3 2 3 3 2 2 3 3 5 5 5 6 5 6 6 5 5 6 6 5 5 7 7 8 9 8
3 8 2 3 1 2 4 4 3 2 2 3 3 3 1 1 2 2 1 2 2 2 1 1 2 2 3 4 5 6 6 4 5 3 4 5 4 6 6 6 5 6 7 6 5 6 6 5 6 6 9 9 9 10
8 4 2 3 4 4 4 5 4 3 3 2 1 1 2 2 3 2 2 2 3 3 2 2 3 4 4 4 4 4 6 6 5 5 5 5 4 4 4 6 6 6 6 6 5 5 6 6 7 8 9 9 10 11
7 4 5 5 6 4 4 4 4 3 3 1 1 2 3 3 4 1 2 1 2 2 1 2 1 2 2 3 1 2 3 4 4 3 4 5 4 6 5 5 6 6 6 5 6 6 7 7 8 8 9 11 10 10
1 2 1 3 1 3 4 4 5 4 4 5 3 3 3 3 1 1 1 1 2 1 1 2 2 2 2 3 4 4 3 2 2 3 3 4 4 2 3 4 5 5 4 7 7 7 7 8 8 9 10 10 14 13
1 3 5 4 4 4 4 4 4 4 3 2 2 2 3 2 2 2 0 1 1 1 1 3 2 2 3 4 2 3 1 3 2 2 2 3 3 4 5 6 5 6 6 5 5 8 9 8 10 12 12 12 11 16
3 5 3 3 2 1 2 2 1 1 3 3 2 3 2 3 2 1 1 1 2 2 2 3 3 4 4 4 4 4 3 4 4 2 1 1 3 2 3 4 6 4 3 4 5 6 9 11 12 12 12 11 12 11
5 4 4 5 3 4 3 3 4 4 3 3 3 2 4 3 2 2 3 3 5 6 6 5 5 5 6 6 4 3 2 4 4 3 2 2 2 2 2 0 3 4 3 4 6 7 7 9 11 12 13 11 8 8
2 2 1 6 4 4 4 5 4 3 4 2 3 2 2 2 2 3 5 7 8 5 3 3 4 5 5 4 4 4 4 6 8 8 9 6 6 5 3 2 4 4 5 5 6 6 10 10 10 10 11 10 8 7
5 3 3 5 4 6 4 4 3 3 3 3 1 1 2 2 4 5 5 5 4 1 1 1 2 4 3 4 3 3 4 6 6 6 7 7 7 5 5 4 5 6 6 8 9 10 10 12 11 10 9 7 7 9
2 2 3 4 3 2 1 1 1 4 4 5 6 3 5 2 3 4 10 8 6 3 2 2 2 2 3 3 3 4 4 5 7 6 5 4 6 5 5 5 6 7 8 9 9 9 10 10 11 11 11 10 7 10
3 3 1 1 1 3 3 2 1 3 5 8 7 5 6 5 8 9 9 11 10 9 6 4 2 1 1 1 1 1 3 5 7 6 9 7 8 6 6 6 7 8 9 10 10 10 13 14 11 11 12 13 10 10
1 1 1 1 1 2 2 1 1 2 1 4 7 11 9 6 6 4 6 8 8 8 7 6 2 2 2 3 3 2 3 4 5 6 7 7 7 6 6 6 7 9 11 10 10 12 14 18 15 14 14 13 12 11
Wind_Direction
189 192 194 190 187 184 168 160 165 168 169 179 182 180 190 191 174 164 109 185 173 218 255 219 217 191 150 190 186 130 180 186 178 205 215 198 222 189 251 261 213 194 184 186 212 237 258 3 258 247 353 320 329 323
185 189 181 177 180 166 160 157 161 170 170 181 180 177 180 194 182 153 127 165 172 237 293 293 255 261 255 219 153 92 342 149 199 213 232 241 219 233 239 240 244 245 258 245 224 233 332 294 313 307 309 306 316 325
182 174 166 168 158 151 151 159 170 169 171 178 177 171 164 169 166 148 128 139 139 301 267 250 244 248 234 232 216 225 214 268 170 348 129 141 239 191 214 228 280 268 349 255 297 271 266 306 312 309 320 323 318 313
164 163 170 159 148 145 149 164 158 159 158 157 162 156 154 148 156 138 150 152 124 112 281 282 262 247 235 213 211 215 217 108 74 252 239 226 236 201 233 277 263 259 320 267 269 279 287 280 291 325 319 319 318 309
157 141 140 144 145 150 153 151 155 155 152 157 157 154 155 150 147 129 128 184 173 249 282 289 304 267 249 214 204 215 221 230 249 259 230 230 231 232 241 255 246 223 236 236 259 278 268 285 299 312 304 302 298 297
134 137 142 146 148 150 151 147 145 147 152 157 162 162 154 152 131 149 202 189 186 186 303 290 323 271 290 206 206 195 198 196 210 210 224 234 209 209 251 255 243 222 228 242 260 271 272 284 285 286 285 290 283 274
132 136 142 147 144 142 144 144 146 149 148 148 151 149 147 147 134 188 152 81 163 170 238 292 289 266 78 105 161 185 176 175 205 227 238 246 224 214 247 253 248 254 256 260 258 259 272 280 278 298 282 278 280 263
142 138 137 137 143 142 143 143 142 140 136 132 129 124 129 122 115 182 127 122 141 145 358 286 281 289 168 160 139 166 172 196 207 229 215 221 226 227 256 249 261 256 257 259 257 258 260 268 279 281 272 258 260 254
131 136 139 139 145 144 143 142 141 139 134 129 120 110 93 80 142 84 180 147 41 230 263 239 263 288 71 48 313 174 182 183 191 221 222 211 219 228 244 262 265 263 258 271 273 263 265 276 281 279 254 245 255 247
130 139 141 142 141 139 140 140 138 139 135 120 82 91 119 168 185 168 109 166 218 191 227 254 241 248 256 190 336 318 198 216 206 213 176 225 249 258 264 269 274 277 271 268 274 279 283 287 284 278 252 231 233 182
127 132 144 142 140 137 139 138 135 127 101 80 113 92 95 189 142 192 161 198 180 229 205 231 236 245 208 229 192 193 304 224 235 164 218 231 254 255 306 297 294 285 271 243 239 254 271 264 266 149 139 137 145 149
133 132 130 138 140 137 136 135 134 101 134 144 109 121 116 117 138 208 186 166 220 243 193 210 215 205 236 231 226 171 258 240 235 142 236 249 282 329 324 318 317 340 328 245 241 268 310 325 115 103 117 114 116 116
133 137 136 135 138 138 142 144 115 120 117 84 86 132 173 159 197 197 184 196 212 206 203 199 197 220 191 227 211 191 253 206 144 203 230 321 334 333 327 310 328 351 328 308 343 342 336 90 74 105 111 114 121 120
137 140 140 144 141 145 150 145 137 120 98 115 149 159 209 190 229 204 208 188 186 210 179 206 216 211 184 196 213 216 223 268 244 232 225 26 346 327 337 358 5 358 332 351 353 338 10 74 63 69 88 99 110 116
137 140 148 143 149 149 152 150 127 57 83 149 180 212 221 234 247 248 225 207 183 154 169 208 269 257 203 243 262 267 230 256 253 296 6 22 333 345 355 1 10 337 339 20 4 45 40 58 74 71 74 80 91 104
137 123 108 154 151 150 147 115 60 75 92 167 226 251 227 253 242 215 217 224 159 160 138 146 251 237 233 221 189 223 233 240 241 294 334 330 319 339 15 360 359 323 327 6 20 41 38 28 55 89 106 118 129 129
102 95 153 148 143 139 133 84 74 176 250 226 227 231 256 284 263 245 211 200 150 168 195 202 216 221 311 221 217 200 232 71 182 263 341 297 290 331 6 339 315 332 337 13 67 17 325 347 38 93 95 90 101 101
71 143 140 134 128 132 96 116 191 213 237 229 241 238 208 224 238 241 206 152 158 181 150 227 296 218 238 206 181 60 237 87 337 314 356 310 325 334 328 304 315 332 353 31 68 37 250 315 54 92 106 104 88 90
144 138 140 147 134 119 163 187 213 250 241 246 245 239 242 252 228 223 259 229 182 160 200 200 230 224 238 318 311 343 36 332 166 108 27 330 336 326 318 305 311 18 60 82 170 313 296 64 105 112 120 122 112 110
126 134 140 138 144 203 233 187 205 248 252 234 235 232 239 256 278 229 231 219 144 181 208 212 174 57 355 16 347 336 325 302 276 92 51 22 358 342 7 354 353 38 85 77 60 29 43 74 91 108 121 126 123 115
101 156 148 81 31 356 272 270 226 233 283 255 292 223 259 206 239 207 81 131 177 174 159 39 82 39 158 82 29 350 3 16 49 2 7 346 345 350 18 24 20 35 51 70 72 63 62 49 82 105 108 114 117 114
93 101 78 79 154 271 262 230 258 314 262 262 248 219 340 306 55 349 48 56 70 86 114 80 83 13 31 40 11 22 8 37 47 44 26 5 358 8 10 14 41 50 46 35 41 62 62 53 70 90 103 107 110 115
102 113 165 161 201 225 253 163 209 211 239 249 238 2 36 19 22 268 82 47 78 45 52 68 55 19 354 6 6 41 24 24 33 21 13 5 9 5 19 25 27 57 64 46 47 59 63 66 71 99 105 108 110 106
162 191 204 192 209 241 203 198 203 202 210 261 39 56 38 356 328 40 94 109 111 133 93 73 46 16 344 335 6 8 20 13 359 356 8 353 17 30 18 30 42 50 64 77 68 72 79 89 99 106 112 109 105 109
325 280 256 317 231 317 10 21 14 21 45 17 28 30 11 327 20 34 327 172 183 242 318 174 191 180 249 286 302 316 4 338 327 332 351 346 336 3 68 61 55 31 26 75 75 83 83 91 101 106 110 115 120 112
1 30 7 354 8 9 14 28 25 18 12 37 34 329 325 315 300 310 236 216 230 235 224 210 220 233 232 218 236 248 246 179 226 263 310 306 332 351 17 22 37 57 30 58 88 104 102 103 107 110 110 114 115 118
45 15 30 27 351 43 66 14 352 351 21 11 357 319 315 313 291 279 290 236 242 262 225 226 225 228 239 248 227 225 209 206 212 250 290 287 267 295 344 14 31 26 12 75 93 105 112 111 108 106 110 119 120 118
39 30 29 3 29 11 28 9 15 8 355 345 300 336 346 342 306 290 253 254 256 265 256 241 222 221 226 230 240 239 201 167 178 201 214 189 208 223 255 7 18 38 40 70 112 117 119 117 119 122 114 104 101 109
27 337 336 21 27 32 26 14 5 357 337 329 331 335 329 264 258 266 280 286 287 267 229 230 217 189 205 215 220 210 165 163 168 184 196 176 170 172 188 156 142 117 105 93 48 84 113 113 110 109 112 109 100 90
31 16 59 20 26 26 354 349 8 350 315 317 228 257 269 270 264 278 304 331 336 321 26 119 150 171 187 191 163 154 169 175 189 186 197 191 175 148 162 146 139 124 119 115 106 103 98 107 105 105 102 103 116 123
33 44 52 36 43 13 77 250 329 13 3 3 14 355 348 304 309 334 5 358 348 349 49 74 91 124 162 170 162 162 170 186 198 203 226 180 163 156 148 142 133 129 129 131 133 131 135 129 124 119 122 118 115 120
16 36 83 121 238 228 239 240 32 10 347 32 34 5 356 358 9 356 357 352 4 11 2 51 68 80 94 105 152 230 229 165 176 197 180 173 164 160 145 136 135 132 128 128 131 131 132 129 127 125 126 125 120 130
289 286 199 234 264 276 266 316 100 187 274 27 38 20 20 14 0 320 328 359 358 356 349 337 357 108 114 107 117 109 80 85 91 104 110 119 128 133 136 136 131 130 130 129 128 132 129 130 132 131 131 141 143 138